Current Weather Conditions: station 42098

sailwx.info

Wave height 0.2 meters (0 feet)

Water temperature 28.0° C

Last reported at 2020-May-31 07:00 UTC.
Time now 2020-May-31 07:40 UTC

Location: N 27°36' W 082°54'.
View on Google Maps.

See reports from other nearby stations

  
Tides and Currents Weather Stations Pressure Air Temp Water Temp Dewpoint Dewpoint Depression Visibility Wind Speed Wind Dir Waves Ship Positions
date/time (UTC)wind fromknots sea level pressurealtimeterstation pressurevisibilityair tempwater tempwave heightnotes
2020-May-31 07:00 28.0 0.2
2020-May-31 06:30 28.0 0.3
2020-May-31 06:00 27.9 0.3
2020-May-31 05:30 27.9 0.3
2020-May-31 05:00 28.0 0.3
2020-May-31 04:30 28.0 0.3
2020-May-31 04:00 28.0 0.3
2020-May-31 03:30 28.0 0.3
2020-May-31 03:00 28.0 0.3
2020-May-31 02:30 28.0 0.4
2020-May-31 02:00 28.0 0.4
2020-May-31 01:30 28.0 0.4
2020-May-31 01:00 28.0 0.4
2020-May-31 00:30 28.1 0.5
2020-May-31 00:00 28.1 0.4
2020-May-30 23:30 28.1 0.5
2020-May-30 23:00 28.2 0.5
2020-May-30 22:30 28.3 0.5
2020-May-30 22:00 28.4 0.4
2020-May-30 21:30 28.3 0.4
2020-May-30 21:00 28.4
2020-May-30 20:30 28.5 0.3
2020-May-30 20:00 28.8 0.3
2020-May-30 19:30 28.9 0.3
2020-May-30 19:00 29.3 0.3
2020-May-30 18:30 29.6 0.3
2020-May-30 18:00 29.0 0.3
2020-May-30 17:30 28.9 0.3
2020-May-30 17:00 28.7 0.3
2020-May-30 16:30 28.4 0.3
2020-May-30 16:00 28.6 0.3
2020-May-30 15:30 28.3 0.3
2020-May-30 15:00 28.0 0.3
2020-May-30 14:30 27.9 0.3
2020-May-30 14:00 27.6 0.3
2020-May-30 13:30 27.5 0.3
2020-May-30 13:00 27.5 0.3
2020-May-30 12:30 27.5 0.3
2020-May-30 12:00 27.5 0.3
2020-May-30 11:30 27.5 0.3
2020-May-30 11:00 27.5 0.3
2020-May-30 10:30 27.5 0.3
2020-May-30 10:00 27.5 0.3
2020-May-30 09:30 27.5 0.3
2020-May-30 09:00 27.6 0.3
2020-May-30 08:30 27.6 0.3
2020-May-30 08:00 27.6 0.4
2020-May-30 07:30 27.6 0.4
2020-May-30 07:00 27.6 0.3
2020-May-30 06:30 27.6 0.3
2020-May-30 06:00 27.6 0.3
2020-May-30 05:30 27.6 0.3
2020-May-30 05:00 27.6 0.3
2020-May-30 04:30 27.6 0.3
2020-May-30 04:00 27.6 0.3
2020-May-30 03:30 27.5 0.3
2020-May-30 03:00 27.5 0.3
2020-May-30 02:30 27.6 0.3
2020-May-30 02:00 27.5 0.3
2020-May-30 01:30 27.5 0.4
2020-May-30 01:00 27.6 0.4
2020-May-30 00:30 27.6 0.4
2020-May-30 00:00 27.6 0.4
2020-May-29 23:30 27.6 0.4
2020-May-29 23:00 27.6 0.4
2020-May-29 22:30 27.7 0.5
2020-May-29 22:00 27.6 0.5
2020-May-29 21:30 27.7 0.5
2020-May-29 21:00 27.7 0.5
2020-May-29 20:30 27.8 0.5
2020-May-29 20:00 27.8 0.5
2020-May-29 19:30 27.8 0.5
2020-May-29 19:00 27.8 0.5
2020-May-29 18:30 27.8 0.5
2020-May-29 18:00 27.8 0.6
2020-May-29 17:00 27.5 0.6
2020-May-29 16:30 27.4 0.7
2020-May-29 16:00 27.3 0.7
2020-May-29 15:30 27.3 0.8
2020-May-29 15:00 27.3 0.7
2020-May-29 14:30 27.3 0.7
2020-May-29 14:00 27.2 0.7
2020-May-29 13:30 27.2 0.7
2020-May-29 13:00 27.2 0.7
2020-May-29 12:30 27.2 0.7
2020-May-29 12:00 27.2 0.7
2020-May-29 11:30 27.2 0.7
2020-May-29 11:00 27.2 0.7
2020-May-29 10:30 27.2 0.7
2020-May-29 10:00 27.3 0.7
2020-May-29 09:30 27.3 0.6
2020-May-29 09:00 27.3 0.6
2020-May-29 08:30 27.3 0.6
2020-May-29 08:00 27.3 0.6
2020-May-29 07:30 27.3 0.5
2020-May-29 07:00 27.4 0.5